TimeEDT,TemperatureF,Dew PointF,Humidity,Sea Level PressureIn,VisibilityMPH,Wind Direction,Wind SpeedMPH,Gust SpeedMPH,PrecipitationIn,Events,Conditions,WindDirDegrees,DateUTC
12:51 AM,75.0,73.0,94,29.79,10.0,ESE,9.2,-,N/A,,Overcast,110,2013-07-23 04:51:00
1:35 AM,75.2,73.4,94,29.78,10.0,ESE,5.8,-,N/A,,Overcast,120,2013-07-23 05:35:00
1:51 AM,75.9,73.0,91,29.77,10.0,SE,8.1,-,N/A,,Overcast,130,2013-07-23 05:51:00
2:51 AM,77.0,75.0,94,29.75,8.0,SSE,8.1,-,0.00,,Overcast,150,2013-07-23 06:51:00
3:51 AM,77.0,75.0,94,29.73,5.0,South,9.2,-,0.04,Rain-Thunderstorm,Light Thunderstorms and Rain,170,2013-07-23 07:51:00
4:29 AM,77.0,75.2,94,29.71,2.5,South,11.5,-,0.09,Rain,Rain,180,2013-07-23 08:29:00
4:39 AM,77.0,75.2,94,29.71,2.5,South,12.7,-,0.11,Rain-Thunderstorm,Thunderstorms and Rain,180,2013-07-23 08:39:00
4:51 AM,77.0,75.0,94,29.70,2.5,South,12.7,-,0.13,Rain-Thunderstorm,Thunderstorms and Rain,170,2013-07-23 08:51:00
5:25 AM,75.2,73.4,94,29.70,5.0,South,20.7,25.3,0.15,Rain,Heavy Rain,190,2013-07-23 09:25:00
5:51 AM,73.9,72.0,93,29.69,10.0,South,9.2,-,0.23,Rain,Light Rain,190,2013-07-23 09:51:00
6:51 AM,73.9,71.1,91,29.69,10.0,SSW,11.5,-,0.00,,Mostly Cloudy,200,2013-07-23 10:51:00
7:51 AM,75.0,72.0,90,29.69,10.0,SSW,10.4,-,N/A,,Mostly Cloudy,210,2013-07-23 11:51:00
8:51 AM,78.1,72.0,81,29.67,10.0,West,15.0,-,N/A,,Mostly Cloudy,260,2013-07-23 12:51:00
9:08 AM,78.8,71.6,78,29.66,10.0,WSW,12.7,-,N/A,,Mostly Cloudy,250,2013-07-23 13:08:00
9:51 AM,78.1,72.0,81,29.66,10.0,WSW,10.4,-,N/A,,Mostly Cloudy,250,2013-07-23 13:51:00
10:46 AM,82.4,71.6,70,29.65,10.0,West,10.4,-,N/A,,Mostly Cloudy,260,2013-07-23 14:46:00
10:51 AM,82.0,71.1,69,29.66,10.0,West,9.2,-,N/A,,Mostly Cloudy,260,2013-07-23 14:51:00
11:51 AM,81.0,71.1,72,29.66,10.0,WSW,12.7,-,N/A,,Mostly Cloudy,240,2013-07-23 15:51:00
12:51 PM,82.9,72.0,69,29.64,10.0,SW,12.7,-,N/A,,Mostly Cloudy,220,2013-07-23 16:51:00
1:51 PM,84.9,71.1,63,29.63,10.0,SW,12.7,-,N/A,,Mostly Cloudy,230,2013-07-23 17:51:00
2:51 PM,84.9,72.0,65,29.62,10.0,SSW,12.7,-,N/A,,Scattered Clouds,210,2013-07-23 18:51:00
3:51 PM,84.9,72.0,65,29.60,10.0,South,12.7,-,N/A,,Mostly Cloudy,190,2013-07-23 19:51:00
4:51 PM,84.0,73.0,69,29.59,10.0,South,13.8,-,N/A,,Scattered Clouds,190,2013-07-23 20:51:00
5:51 PM,81.0,73.0,77,29.58,10.0,SSW,11.5,-,N/A,,Mostly Cloudy,200,2013-07-23 21:51:00
6:51 PM,82.0,73.0,74,29.58,10.0,NW,25.3,66.7,N/A,,Mostly Cloudy,310,2013-07-23 22:51:00
7:51 PM,84.0,71.1,65,29.59,10.0,WSW,11.5,-,N/A,,Mostly Cloudy,240,2013-07-23 23:51:00
8:51 PM,82.0,71.1,69,29.60,10.0,SW,11.5,-,N/A,,Mostly Cloudy,230,2013-07-24 00:51:00
9:51 PM,79.0,69.1,72,29.62,10.0,East,3.5,-,N/A,,Mostly Cloudy,80,2013-07-24 01:51:00
10:51 PM,80.1,69.1,69,29.63,10.0,Variable,4.6,-,N/A,,Mostly Cloudy,0,2013-07-24 02:51:00
11:51 PM,81.0,68.0,65,29.63,10.0,West,9.2,-,N/A,,Scattered Clouds,270,2013-07-24 03:51:00